T08 EFTU-EFHK

Flight info

Callsign T08
Flight time 1h 46m
Altitude 7000
Route TC JUTKI TA HAGIP
Aircraft PC12/L-SDFGRWY/S

Departure

Time 2026-04-30 12:24
Airport Turku Airport (EFTU)

Arrival

Time 2026-04-30 14:10
Airport Helsinki Vantaa Airport (EFHK)
Time Latitude Longitude Altitude Speed Heading
2026-04-30 12:21 60.51238 22.26625 150 ft 0 kts 115°
2026-04-30 12:22 60.51236 22.26632 151 ft 4 kts 111°
2026-04-30 12:22 60.51267 22.26768 148 ft 18 kts 83°
2026-04-30 12:22 60.51338 22.27039 146 ft 29 kts 21°
2026-04-30 12:23 60.51432 22.26757 143 ft 43 kts 264°
2026-04-30 12:23 60.51388 22.25779 153 ft 91 kts 265°
2026-04-30 12:23 60.51312 22.24389 370 ft 110 kts 272°
2026-04-30 12:23 60.51080 22.22711 650 ft 141 kts 237°
2026-04-30 12:24 60.50073 22.22397 1034 ft 181 kts 144°
2026-04-30 12:24 60.49968 22.24805 1126 ft 190 kts 68°
2026-04-30 12:24 60.50307 22.27463 1006 ft 204 kts 77°
2026-04-30 12:24 60.50477 22.30390 781 ft 210 kts 84°
2026-04-30 12:25 60.50993 22.32564 834 ft 147 kts
2026-04-30 12:25 60.51497 22.31287 536 ft 128 kts 287°
2026-04-30 12:25 60.51541 22.29720 368 ft 102 kts 275°
2026-04-30 12:25 60.51501 22.28348 163 ft 92 kts 275°
2026-04-30 12:26 60.51449 22.27183 256 ft 81 kts 275°
2026-04-30 12:26 60.51403 22.25846 415 ft 110 kts 274°
2026-04-30 12:26 60.51320 22.24138 705 ft 134 kts 272°
2026-04-30 12:26 60.50864 22.22400 1169 ft 163 kts 213°
2026-04-30 12:27 60.49731 22.23060 1290 ft 205 kts 120°
2026-04-30 12:27 60.49720 22.25913 1318 ft 212 kts 80°
2026-04-30 12:27 60.49858 22.28938 1125 ft 210 kts 86°
2026-04-30 12:27 60.49841 22.31747 983 ft 190 kts 89°
2026-04-30 12:28 60.50386 22.33542 946 ft 137 kts
2026-04-30 12:28 60.50868 22.32482 760 ft 97 kts 297°
2026-04-30 12:28 60.51187 22.31330 492 ft 92 kts 306°
2026-04-30 12:28 60.51437 22.30138 362 ft 94 kts 290°
2026-04-30 12:29 60.51511 22.28829 229 ft 94 kts 279°
2026-04-30 12:29 60.51466 22.27559 149 ft 85 kts 270°
2026-04-30 12:29 60.51395 22.26379 311 ft 85 kts 275°
2026-04-30 12:29 60.51362 22.24951 464 ft 117 kts 271°
2026-04-30 12:30 60.51105 22.23238 585 ft 161 kts 228°
2026-04-30 12:30 60.49919 22.23091 976 ft 187 kts 149°
2026-04-30 12:30 60.49662 22.25527 1202 ft 196 kts 75°
2026-04-30 12:30 60.49871 22.28409 1062 ft 207 kts 84°
2026-04-30 12:31 60.49898 22.31291 914 ft 199 kts 89°
2026-04-30 12:31 60.50215 22.33645 887 ft 164 kts 30°
2026-04-30 12:31 60.51152 22.33420 931 ft 134 kts 312°
2026-04-30 12:31 60.51530 22.31821 684 ft 118 kts 288°
2026-04-30 12:32 60.51569 22.30399 461 ft 94 kts 277°
2026-04-30 12:32 60.51524 22.29129 240 ft 87 kts 277°
2026-04-30 12:32 60.51483 22.27935 146 ft 80 kts 276°
2026-04-30 12:32 60.51422 22.26806 282 ft 89 kts 276°
2026-04-30 12:33 60.51385 22.25397 533 ft 111 kts 276°
2026-04-30 12:33 60.51352 22.23631 835 ft 137 kts 266°
2026-04-30 12:33 60.50869 22.21883 1427 ft 156 kts 228°
2026-04-30 12:33 60.49768 22.21060 1773 ft 187 kts 179°
2026-04-30 12:34 60.48471 22.21213 2345 ft 179 kts 199°
2026-04-30 12:34 60.47372 22.19884 2396 ft 203 kts 224°
2026-04-30 12:34 60.46098 22.18173 1991 ft 235 kts 211°
2026-04-30 12:34 60.44517 22.16853 1573 ft 253 kts 202°
2026-04-30 12:35 60.42841 22.15741 1219 ft 252 kts 197°
2026-04-30 12:35 60.41142 22.15424 1232 ft 238 kts 187°
2026-04-30 12:35 60.39526 22.15203 1257 ft 230 kts 188°
2026-04-30 12:35 60.37926 22.14780 1003 ft 235 kts 192°
2026-04-30 12:36 60.36315 22.14162 708 ft 234 kts 195°
2026-04-30 12:36 60.34791 22.13174 646 ft 223 kts 203°
2026-04-30 12:36 60.33386 22.12066 753 ft 211 kts 206°
2026-04-30 12:36 60.32048 22.11023 1009 ft 199 kts 205°
2026-04-30 12:37 60.30806 22.10090 1408 ft 183 kts 206°
2026-04-30 12:37 60.29623 22.09227 1916 ft 185 kts 205°
2026-04-30 12:37 60.28393 22.08299 2419 ft 195 kts 205°
2026-04-30 12:37 60.27106 22.07338 2943 ft 199 kts 205°
2026-04-30 12:38 60.25795 22.06376 3460 ft 202 kts 205°
2026-04-30 12:38 60.24458 22.05404 3984 ft 208 kts 205°
2026-04-30 12:38 60.23084 22.04390 4492 ft 212 kts 205°
2026-04-30 12:38 60.21692 22.03347 5022 ft 215 kts 205°
2026-04-30 12:39 60.20290 22.02288 5525 ft 215 kts 205°
2026-04-30 12:39 60.18887 22.01209 6042 ft 217 kts 205°
2026-04-30 12:39 60.17484 22.00112 6559 ft 217 kts 205°
2026-04-30 12:39 60.16084 21.98997 7046 ft 217 kts 205°
2026-04-30 12:40 60.15126 21.98227 7109 ft 232 kts 205°
2026-04-30 12:40 60.13567 21.96958 7108 ft 250 kts 205°
2026-04-30 12:40 60.11909 21.95592 7117 ft 263 kts 205°
2026-04-30 12:40 60.10192 21.94169 7132 ft 270 kts 205°
2026-04-30 12:41 60.08436 21.92721 7133 ft 275 kts 205°
2026-04-30 12:41 60.06666 21.91271 7123 ft 275 kts 205°
2026-04-30 12:41 60.04896 21.89823 7121 ft 275 kts 205°
2026-04-30 12:41 60.03130 21.88381 7124 ft 275 kts 205°
2026-04-30 12:42 60.01362 21.86939 7122 ft 275 kts 205°
2026-04-30 12:42 59.99589 21.85494 7128 ft 275 kts 205°
2026-04-30 12:42 59.97818 21.84051 7128 ft 275 kts 205°
2026-04-30 12:42 59.95475 21.82141 7130 ft 275 kts 205°
2026-04-30 12:43 59.94277 21.81166 7134 ft 275 kts 205°
2026-04-30 12:43 59.92507 21.79726 7135 ft 275 kts 205°
2026-04-30 12:43 59.90735 21.78283 7133 ft 275 kts 205°
2026-04-30 12:43 59.88982 21.76858 7128 ft 265 kts 205°
2026-04-30 12:44 59.87328 21.75525 7125 ft 248 kts 205°
2026-04-30 12:44 59.85785 21.74291 7124 ft 237 kts 205°
2026-04-30 12:44 59.84288 21.73106 7126 ft 227 kts 205°
2026-04-30 12:44 59.82846 21.71973 7126 ft 219 kts 205°
2026-04-30 12:45 59.81447 21.70881 7130 ft 213 kts 205°
2026-04-30 12:45 59.80079 21.69817 7128 ft 210 kts 205°
2026-04-30 12:45 59.78720 21.68763 7132 ft 210 kts 205°
2026-04-30 12:45 59.77358 21.67709 7137 ft 210 kts 205°
2026-04-30 12:46 59.75998 21.66656 7137 ft 210 kts 205°
2026-04-30 12:46 59.74648 21.65582 7131 ft 208 kts 210°
2026-04-30 12:46 59.73565 21.63813 7128 ft 200 kts 234°
2026-04-30 12:46 59.72727 21.61643 7132 ft 197 kts 242°
2026-04-30 12:47 59.72018 21.59344 7137 ft 195 kts 247°
2026-04-30 12:47 59.71396 21.56961 7140 ft 194 kts 249°
2026-04-30 12:47 59.70829 21.54543 7137 ft 193 kts 253°
2026-04-30 12:47 59.70323 21.52088 7137 ft 192 kts 255°
2026-04-30 12:48 59.69830 21.49627 7144 ft 192 kts 255°
2026-04-30 12:48 59.69337 21.47170 7139 ft 192 kts 255°
2026-04-30 12:48 59.68845 21.44711 7144 ft 192 kts 255°
2026-04-30 12:48 59.68353 21.42255 7147 ft 192 kts 255°
2026-04-30 12:49 59.67863 21.39800 7150 ft 192 kts 255°
2026-04-30 12:49 59.67372 21.37348 7148 ft 191 kts 255°
2026-04-30 12:49 59.66882 21.34902 7148 ft 191 kts 255°
2026-04-30 12:49 59.66391 21.32458 7144 ft 191 kts 255°
2026-04-30 12:50 59.65900 21.30021 7149 ft 191 kts 255°
2026-04-30 12:50 59.65405 21.27562 7148 ft 191 kts 255°
2026-04-30 12:50 59.64920 21.25150 7150 ft 190 kts 255°
2026-04-30 12:50 59.64429 21.22718 7148 ft 190 kts 255°
2026-04-30 12:51 59.63938 21.20288 7153 ft 190 kts 255°
2026-04-30 12:51 59.63451 21.17879 7152 ft 190 kts 255°
2026-04-30 12:51 59.62956 21.15435 7154 ft 190 kts 254°
2026-04-30 12:51 59.62466 21.13013 7153 ft 190 kts 254°
2026-04-30 12:52 59.61976 21.10589 7157 ft 190 kts 254°
2026-04-30 12:52 59.61487 21.08168 7156 ft 190 kts 255°
2026-04-30 12:52 59.60997 21.05753 7158 ft 189 kts 254°
2026-04-30 12:52 59.60506 21.03343 7152 ft 189 kts 254°
2026-04-30 12:53 59.59949 21.00991 7162 ft 193 kts 237°
2026-04-30 12:53 59.58776 20.99668 7176 ft 204 kts 190°
2026-04-30 12:53 59.57420 21.00276 7172 ft 204 kts 143°
2026-04-30 12:53 59.56655 21.02468 7180 ft 192 kts 95°
2026-04-30 12:54 59.56663 21.05021 7173 ft 185 kts 77°
2026-04-30 12:54 59.56812 21.07535 7171 ft 185 kts 76°
2026-04-30 12:54 59.56968 21.10024 7171 ft 186 kts 76°
2026-04-30 12:54 59.57129 21.12583 7175 ft 186 kts 76°
2026-04-30 12:55 59.57286 21.15081 7178 ft 186 kts 76°
2026-04-30 12:55 59.57448 21.17620 7174 ft 187 kts 76°
2026-04-30 12:55 59.57611 21.20165 7176 ft 187 kts 76°
2026-04-30 12:55 59.57773 21.22707 7173 ft 187 kts 76°
2026-04-30 12:56 59.57935 21.25251 7179 ft 187 kts 76°
2026-04-30 12:56 59.58099 21.27801 7174 ft 187 kts 76°
2026-04-30 12:56 59.58263 21.30354 7173 ft 187 kts 76°
2026-04-30 12:56 59.58428 21.32901 7177 ft 187 kts 76°
2026-04-30 12:57 59.58593 21.35455 7171 ft 187 kts 76°
2026-04-30 12:57 59.58755 21.38004 7180 ft 187 kts 76°
2026-04-30 12:57 59.58918 21.40558 7174 ft 187 kts 76°
2026-04-30 12:57 59.59082 21.43105 7169 ft 187 kts 76°
2026-04-30 12:58 59.59245 21.45648 7181 ft 187 kts 76°
2026-04-30 12:58 59.59407 21.48195 7172 ft 187 kts 77°
2026-04-30 12:58 59.59569 21.50740 7177 ft 187 kts 76°
2026-04-30 12:58 59.59732 21.53281 7172 ft 186 kts 76°
2026-04-30 12:59 59.59894 21.55821 7176 ft 187 kts 76°
2026-04-30 12:59 59.60057 21.58363 7174 ft 187 kts 77°
2026-04-30 12:59 59.60219 21.60901 7170 ft 186 kts 76°
2026-04-30 12:59 59.60381 21.63440 7179 ft 186 kts 77°
2026-04-30 13:00 59.60541 21.65977 7175 ft 186 kts 78°
2026-04-30 13:00 59.60350 21.68505 7167 ft 196 kts 115°
2026-04-30 13:00 59.59302 21.70220 7172 ft 203 kts 161°
2026-04-30 13:00 59.57931 21.70120 7177 ft 199 kts 207°
2026-04-30 13:01 59.56991 21.68313 7183 ft 187 kts 249°
2026-04-30 13:01 59.56515 21.65959 7173 ft 184 kts 256°
2026-04-30 13:01 59.56088 21.63575 7171 ft 185 kts 257°
2026-04-30 13:01 59.55666 21.61218 7174 ft 185 kts 256°
2026-04-30 13:02 59.55240 21.58829 7106 ft 185 kts 257°
2026-04-30 13:02 59.54812 21.56437 7173 ft 185 kts 257°
2026-04-30 13:02 59.54382 21.54041 7174 ft 185 kts 257°
2026-04-30 13:02 59.53953 21.51653 7173 ft 185 kts 256°
2026-04-30 13:03 59.53522 21.49260 7173 ft 185 kts 256°
2026-04-30 13:03 59.53094 21.46871 7170 ft 185 kts 256°
2026-04-30 13:03 59.52665 21.44481 7170 ft 185 kts 257°
2026-04-30 13:03 59.52234 21.42090 7168 ft 185 kts 256°
2026-04-30 13:04 59.51803 21.39705 7168 ft 185 kts 256°
2026-04-30 13:04 59.51372 21.37316 7170 ft 185 kts 256°
2026-04-30 13:04 59.50941 21.34929 7167 ft 185 kts 256°
2026-04-30 13:04 59.50508 21.32537 7167 ft 185 kts 256°
2026-04-30 13:05 59.50075 21.30145 7163 ft 185 kts 256°
2026-04-30 13:05 59.49643 21.27755 7167 ft 185 kts 256°
2026-04-30 13:05 59.49210 21.25365 7163 ft 186 kts 256°
2026-04-30 13:06 59.48343 21.20583 7161 ft 185 kts 256°
2026-04-30 13:06 59.47908 21.18197 7164 ft 185 kts 256°
2026-04-30 13:06 59.47473 21.15811 7162 ft 186 kts 256°
2026-04-30 13:06 59.47036 21.13420 7164 ft 186 kts 256°
2026-04-30 13:07 59.46598 21.11029 7158 ft 186 kts 256°
2026-04-30 13:07 59.46160 21.08642 7163 ft 186 kts 256°
2026-04-30 13:07 59.45644 21.06323 7171 ft 190 kts 237°
2026-04-30 13:07 59.44491 21.05029 7180 ft 200 kts 189°
2026-04-30 13:08 59.43158 21.05659 7183 ft 201 kts 141°
2026-04-30 13:08 59.42432 21.07842 7185 ft 189 kts 94°
2026-04-30 13:08 59.42459 21.10351 7183 ft 183 kts 77°
2026-04-30 13:08 59.42609 21.12793 7179 ft 183 kts 76°
2026-04-30 13:09 59.42767 21.15275 7179 ft 184 kts 76°
2026-04-30 13:09 59.42928 21.17765 7172 ft 184 kts 76°
2026-04-30 13:09 59.43088 21.20258 7176 ft 184 kts 76°
2026-04-30 13:09 59.43249 21.22762 7178 ft 185 kts 76°
2026-04-30 13:10 59.43411 21.25267 7170 ft 185 kts 76°
2026-04-30 13:10 59.43574 21.27777 7174 ft 185 kts 76°
2026-04-30 13:10 59.43737 21.30288 7169 ft 185 kts 76°
2026-04-30 13:10 59.43899 21.32796 7175 ft 185 kts 76°
2026-04-30 13:11 59.44062 21.35311 7170 ft 186 kts 76°
2026-04-30 13:11 59.44225 21.37826 7162 ft 186 kts 76°
2026-04-30 13:11 59.44388 21.40339 7165 ft 186 kts 76°
2026-04-30 13:11 59.44551 21.42857 7170 ft 186 kts 76°
2026-04-30 13:12 59.44715 21.45373 7161 ft 186 kts 76°
2026-04-30 13:12 59.44880 21.47887 7170 ft 185 kts 76°
2026-04-30 13:12 59.45043 21.50401 7166 ft 185 kts 76°
2026-04-30 13:13 59.45368 21.55422 7162 ft 185 kts 77°
2026-04-30 13:13 59.45531 21.57932 7161 ft 185 kts 76°
2026-04-30 13:13 59.45857 21.62941 7163 ft 185 kts 77°
2026-04-30 13:14 59.46019 21.65446 7162 ft 185 kts 76°
2026-04-30 13:14 59.46180 21.67948 7163 ft 184 kts 76°
2026-04-30 13:14 59.46536 21.72916 7160 ft 178 kts 64°
2026-04-30 13:15 59.47328 21.74560 7164 ft 165 kts 17°
2026-04-30 13:15 59.49422 21.73326 7157 ft 163 kts 332°
2026-04-30 13:15 59.50402 21.72193 7159 ft 164 kts 332°
2026-04-30 13:16 59.51401 21.71106 7157 ft 164 kts 333°
2026-04-30 13:16 59.52409 21.70035 7157 ft 165 kts 334°
2026-04-30 13:16 59.53417 21.68965 7157 ft 165 kts 334°
2026-04-30 13:17 59.55440 21.66820 7148 ft 165 kts 334°
2026-04-30 13:17 59.56453 21.65745 7152 ft 165 kts 333°
2026-04-30 13:17 59.58138 21.63957 7153 ft 166 kts 334°
2026-04-30 13:18 59.59484 21.62529 7147 ft 166 kts 334°
2026-04-30 13:18 59.61513 21.60370 7143 ft 166 kts 333°
2026-04-30 13:18 59.62529 21.59288 7148 ft 166 kts 333°
2026-04-30 13:19 59.63545 21.58205 7144 ft 166 kts 334°
2026-04-30 13:19 59.64560 21.57125 7148 ft 166 kts 334°
2026-04-30 13:19 59.65578 21.56042 7146 ft 166 kts 334°
2026-04-30 13:19 59.66595 21.54961 7138 ft 166 kts 334°
2026-04-30 13:20 59.67468 21.53525 7149 ft 170 kts 302°
2026-04-30 13:20 59.67526 21.51159 7152 ft 186 kts 254°
2026-04-30 13:20 59.66619 21.49288 7152 ft 199 kts 207°
2026-04-30 13:20 59.65249 21.49149 7155 ft 202 kts 162°
2026-04-30 13:21 59.63949 21.50188 7146 ft 201 kts 154°
2026-04-30 13:21 59.62674 21.51338 7149 ft 202 kts 153°
2026-04-30 13:21 59.61396 21.52497 7145 ft 202 kts 153°
2026-04-30 13:22 59.58850 21.54803 7147 ft 203 kts 153°
2026-04-30 13:22 59.57564 21.55961 7146 ft 203 kts 154°
2026-04-30 13:22 59.54982 21.58281 7148 ft 204 kts 153°
2026-04-30 13:23 59.53690 21.59440 7140 ft 204 kts 153°
2026-04-30 13:23 59.51100 21.61758 7142 ft 204 kts 154°
2026-04-30 13:24 59.48513 21.64074 7141 ft 204 kts 153°
2026-04-30 13:24 59.46903 21.67892 7147 ft 182 kts 78°
2026-04-30 13:25 59.48542 21.70296 7144 ft 162 kts 345°
2026-04-30 13:25 59.50558 21.68316 7141 ft 163 kts 334°
2026-04-30 13:26 59.53553 21.65091 7136 ft 164 kts 334°
2026-04-30 13:26 59.55559 21.62929 7136 ft 164 kts 334°
2026-04-30 13:27 59.57568 21.60762 7136 ft 165 kts 333°
2026-04-30 13:28 59.60589 21.57505 7130 ft 165 kts 334°
2026-04-30 13:28 59.62608 21.55324 7132 ft 165 kts 334°
2026-04-30 13:28 59.63276 21.54604 7133 ft 165 kts 334°
2026-04-30 13:29 59.65297 21.52420 7127 ft 166 kts 334°
2026-04-30 13:29 59.66926 21.48635 7135 ft 182 kts 268°
2026-04-30 13:30 59.64028 21.46271 7134 ft 202 kts 156°
2026-04-30 13:31 59.61455 21.48533 7132 ft 203 kts 153°
2026-04-30 13:31 59.57593 21.51994 7130 ft 205 kts 153°
2026-04-30 13:32 59.55553 21.55355 7133 ft 189 kts 95°
2026-04-30 13:32 59.55835 21.60267 7131 ft 180 kts 72°
2026-04-30 13:33 59.56307 21.65131 7127 ft 181 kts 72°
2026-04-30 13:33 59.56780 21.70010 7124 ft 182 kts 72°
2026-04-30 13:34 59.57018 21.72461 7121 ft 182 kts 72°
2026-04-30 13:34 59.57728 21.79830 7124 ft 183 kts 72°
2026-04-30 13:35 59.57966 21.82291 7114 ft 183 kts 72°
2026-04-30 13:35 59.58439 21.87215 7116 ft 183 kts 73°
2026-04-30 13:36 59.58912 21.92138 7113 ft 182 kts 72°
2026-04-30 13:36 59.59146 21.94595 7114 ft 182 kts 73°
2026-04-30 13:36 59.59613 21.99501 7112 ft 182 kts 72°
2026-04-30 13:37 59.59846 22.01958 7105 ft 182 kts 72°
2026-04-30 13:37 59.60311 22.06875 7105 ft 182 kts 73°
2026-04-30 13:38 59.60772 22.11792 7105 ft 182 kts 73°
2026-04-30 13:38 59.61002 22.14249 7100 ft 182 kts 73°
2026-04-30 13:38 59.61461 22.19160 7102 ft 182 kts 73°
2026-04-30 13:39 59.61917 22.24075 7096 ft 182 kts 73°
2026-04-30 13:39 59.62365 22.28967 7097 ft 182 kts 73°
2026-04-30 13:40 59.62591 22.31426 7093 ft 182 kts 73°
2026-04-30 13:40 59.62816 22.33887 7091 ft 182 kts 73°
2026-04-30 13:40 59.63041 22.36350 7090 ft 182 kts 73°
2026-04-30 13:40 59.63266 22.38813 7089 ft 182 kts 73°
2026-04-30 13:41 59.63492 22.41278 7084 ft 182 kts 73°
2026-04-30 13:41 59.63716 22.43740 7084 ft 182 kts 73°
2026-04-30 13:41 59.63938 22.46205 7089 ft 182 kts 73°
2026-04-30 13:41 59.64161 22.48670 7085 ft 182 kts 73°
2026-04-30 13:42 59.64383 22.51140 7078 ft 182 kts 73°
2026-04-30 13:42 59.64607 22.53608 7075 ft 182 kts 73°
2026-04-30 13:42 59.65049 22.58547 7079 ft 182 kts 73°
2026-04-30 13:43 59.65268 22.61017 7076 ft 182 kts 73°
2026-04-30 13:43 59.65486 22.63490 7077 ft 183 kts 73°
2026-04-30 13:43 59.65704 22.65965 7072 ft 183 kts 73°
2026-04-30 13:43 59.65923 22.68446 7074 ft 183 kts 73°
2026-04-30 13:44 59.66142 22.70931 7069 ft 183 kts 73°
2026-04-30 13:44 59.66357 22.73413 7068 ft 184 kts 73°
2026-04-30 13:44 59.66594 22.76021 7069 ft 200 kts 73°
2026-04-30 13:44 59.66859 22.78808 7065 ft 211 kts 73°
2026-04-30 13:45 59.67433 22.84684 7062 ft 223 kts 73°
2026-04-30 13:45 59.67733 22.87711 7064 ft 226 kts 73°
2026-04-30 13:45 59.68036 22.90777 7063 ft 228 kts 73°
2026-04-30 13:46 59.68341 22.93864 7055 ft 229 kts 73°
2026-04-30 13:46 59.68646 22.96959 7059 ft 229 kts 73°
2026-04-30 13:46 59.68950 23.00061 7053 ft 230 kts 73°
2026-04-30 13:46 59.69254 23.03167 7052 ft 230 kts 73°
2026-04-30 13:47 59.69560 23.06273 7049 ft 230 kts 73°
2026-04-30 13:47 59.69865 23.09380 7049 ft 229 kts 73°
2026-04-30 13:47 59.70164 23.12480 7049 ft 229 kts 73°
2026-04-30 13:47 59.70461 23.15590 7050 ft 230 kts 73°
2026-04-30 13:48 59.70756 23.18700 7043 ft 230 kts 73°
2026-04-30 13:48 59.71051 23.21809 7044 ft 230 kts 73°
2026-04-30 13:48 59.71344 23.24918 7045 ft 229 kts 73°
2026-04-30 13:48 59.71637 23.28021 7045 ft 229 kts 73°
2026-04-30 13:49 59.71930 23.31120 7041 ft 229 kts 73°
2026-04-30 13:49 59.72221 23.34217 7037 ft 229 kts 73°
2026-04-30 13:49 59.72509 23.37314 7038 ft 229 kts 73°
2026-04-30 13:49 59.72795 23.40412 7033 ft 228 kts 73°
2026-04-30 13:50 59.73080 23.43508 7030 ft 228 kts 73°
2026-04-30 13:50 59.73642 23.49662 7031 ft 224 kts 73°
2026-04-30 13:50 59.73912 23.52679 7027 ft 221 kts 73°
2026-04-30 13:51 59.74177 23.55672 7026 ft 220 kts 73°
2026-04-30 13:51 59.74437 23.58649 7024 ft 218 kts 73°
2026-04-30 13:51 59.74692 23.61611 7017 ft 217 kts 73°
2026-04-30 13:51 59.74943 23.64554 7025 ft 216 kts 73°
2026-04-30 13:52 59.75190 23.67452 7020 ft 216 kts 73°
2026-04-30 13:52 59.75438 23.70385 7018 ft 216 kts 73°
2026-04-30 13:52 59.75683 23.73320 7014 ft 215 kts 73°
2026-04-30 13:52 59.75928 23.76249 7018 ft 215 kts 73°
2026-04-30 13:53 59.76169 23.79170 7011 ft 214 kts 73°
2026-04-30 13:53 59.76406 23.82090 7001 ft 214 kts 73°
2026-04-30 13:53 59.76638 23.85011 7001 ft 214 kts 73°
2026-04-30 13:53 59.76870 23.87929 7003 ft 214 kts 73°
2026-04-30 13:54 59.77102 23.90843 7003 ft 214 kts 73°
2026-04-30 13:54 59.77333 23.93759 7004 ft 214 kts 73°
2026-04-30 13:54 59.77565 23.96674 7005 ft 214 kts 73°
2026-04-30 13:54 59.77798 23.99582 6998 ft 214 kts 73°
2026-04-30 13:55 59.78033 24.02499 7002 ft 214 kts 73°
2026-04-30 13:55 59.78269 24.05412 6999 ft 214 kts 73°
2026-04-30 13:55 59.78505 24.08327 6993 ft 214 kts 73°
2026-04-30 13:55 59.78955 24.11016 6999 ft 199 kts 45°
2026-04-30 13:56 59.80051 24.12523 6997 ft 191 kts 23°
2026-04-30 13:56 59.81210 24.13823 6993 ft 193 kts 31°
2026-04-30 13:56 59.82244 24.15510 6994 ft 196 kts 38°
2026-04-30 13:56 59.83240 24.17435 6992 ft 198 kts 39°
2026-04-30 13:57 59.84228 24.19354 6995 ft 199 kts 39°
2026-04-30 13:57 59.85214 24.21230 6991 ft 199 kts 39°
2026-04-30 13:57 59.86214 24.23126 7065 ft 196 kts 39°
2026-04-30 13:57 59.87181 24.24967 7192 ft 192 kts 38°
2026-04-30 13:58 59.88155 24.26815 7189 ft 195 kts 39°
2026-04-30 13:58 59.90128 24.30575 7190 ft 198 kts 39°
2026-04-30 13:58 59.91124 24.32475 7188 ft 199 kts 39°
2026-04-30 13:59 59.92125 24.34386 7171 ft 200 kts 39°
2026-04-30 13:59 59.93159 24.36358 6955 ft 210 kts 39°
2026-04-30 13:59 59.94231 24.38410 6737 ft 216 kts 39°
2026-04-30 13:59 59.95264 24.40390 6527 ft 220 kts 40°
2026-04-30 14:00 59.96373 24.42519 6280 ft 222 kts 40°
2026-04-30 14:00 59.98621 24.46834 5818 ft 226 kts 40°
2026-04-30 14:00 59.99757 24.49018 5574 ft 227 kts 40°
2026-04-30 14:01 60.00899 24.51216 5354 ft 228 kts 40°
2026-04-30 14:01 60.02046 24.53426 5125 ft 230 kts 41°
2026-04-30 14:01 60.03197 24.55645 4892 ft 230 kts 41°
2026-04-30 14:01 60.04351 24.57873 4655 ft 231 kts 41°
2026-04-30 14:02 60.05506 24.60104 4413 ft 231 kts 41°
2026-04-30 14:02 60.06658 24.62333 4337 ft 225 kts 41°
2026-04-30 14:02 60.07741 24.64436 4568 ft 210 kts 40°
2026-04-30 14:02 60.08764 24.66418 4798 ft 200 kts 40°
2026-04-30 14:03 60.09752 24.68329 4969 ft 197 kts 40°
2026-04-30 14:03 60.10764 24.70283 4852 ft 207 kts 40°
2026-04-30 14:03 60.11803 24.72306 4829 ft 209 kts 40°
2026-04-30 14:03 60.12845 24.74336 4820 ft 210 kts 40°
2026-04-30 14:04 60.13891 24.76373 4819 ft 210 kts 40°
2026-04-30 14:04 60.14936 24.78410 4825 ft 210 kts 40°
2026-04-30 14:04 60.15982 24.80449 4815 ft 210 kts 40°
2026-04-30 14:04 60.17029 24.82492 4821 ft 210 kts 41°
2026-04-30 14:05 60.18075 24.84536 4821 ft 210 kts 41°
2026-04-30 14:05 60.19121 24.86584 4814 ft 210 kts 40°
2026-04-30 14:05 60.20173 24.88642 4817 ft 211 kts 41°
2026-04-30 14:05 60.21315 24.90298 4818 ft 196 kts 26°
2026-04-30 14:06 60.22307 24.91881 4807 ft 169 kts 39°
2026-04-30 14:06 60.23149 24.95701 4357 ft 171 kts 110°
2026-04-30 14:07 60.21341 24.99409 3316 ft 183 kts 107°
2026-04-30 14:07 60.21463 25.01680 3132 ft 161 kts 65°
2026-04-30 14:07 60.22041 25.03426 2989 ft 146 kts 31°
2026-04-30 14:08 60.24007 25.03975 2346 ft 149 kts 350°
2026-04-30 14:08 60.25022 25.03595 2013 ft 147 kts 345°
2026-04-30 14:08 60.26992 25.02530 1274 ft 133 kts 339°
2026-04-30 14:09 60.27765 25.01843 1073 ft 105 kts 332°
2026-04-30 14:09 60.28346 25.01266 855 ft 92 kts 330°
2026-04-30 14:09 60.29498 25.00066 532 ft 95 kts 331°
2026-04-30 14:10 60.30086 24.99457 368 ft 96 kts 332°
2026-04-30 14:10 60.30685 24.98847 214 ft 96 kts 333°
2026-04-30 14:10 60.31237 24.98288 155 ft 75 kts 330°
2026-04-30 14:10 60.31472 24.97973 150 ft 10 kts 226°
2026-04-30 14:11 60.31379 24.97817 153 ft 23 kts 179°
2026-04-30 14:11 60.31204 24.97986 155 ft 33 kts 154°
2026-04-30 14:11 60.30977 24.98207 154 ft 32 kts 163°
2026-04-30 14:11 60.30855 24.98087 157 ft 17 kts 182°
2026-04-30 14:12 60.30844 24.98086 157 ft 0 kts 182°